Home > Time Zones > World Clock > Weather > Italy > Monza > Past weeks

Flag for Italy Weather past 2 weeks in Monza, Italy

Now
79 °F

Scattered clouds.


Feels Like: 80 °F
Forecast: 59 / 78 °F
Wind: 6 mph from East

Location: Milan / Linate

Current Time: Aug 31, 2014 at 1:17:24 PM

Latest Report: Aug 31, 2014 at 12:50 PM


Visibility: N/A

Pressure: 29.92 "Hg

Humidity: 51%

Dew point: 59 °F

Location of MonzaLocation

Historic Weather in Monza — Graph

°F

Monza temperature yesterday

Maximum temperature yesterday: 82 °F (at 4:50 PM)
Minimum temperature yesterday: 70 °F (at 3:20 AM)
Average temperature yesterday: 74 °F

Past Weeks' High & Low Weather Summary

 TemperatureHumidityPressure
High82 °F (Aug 27, 3:50 PM)100% (Aug 17, 2:50 AM)30.09 "Hg (Aug 17, 2:50 AM)
Low55 °F (Aug 17, 6:20 AM)34% (Aug 24, 6:50 PM)29.80 "Hg (Aug 27, 2:50 AM)
Average69 °F78%29.95 "Hg
* Reported Aug 16 11:20 AM — Aug 31 11:50 AM, Monza, Weather by CustomWeather, © 2014

Note: Actual official high and low records may vary slightly from our data, if they occured in-between our weather recording intervals... More about our weather records

Advertising

Monza weather history for previous 24 hours

 ConditionsComfort  
Time TempWeatherWind HumidityBarometerVisibility
11:50 AM
Aug 31
75 °FPassing clouds.6 mph61%29.95 "HgN/A
11:20 AM75 °FPassing clouds.6 mph61%29.95 "HgN/A
10:50 AM73 °FSunny.6 mph65%29.95 "Hg10 mi
10:20 AM73 °FPassing clouds.6 mph65%29.95 "HgN/A
9:50 AM72 °FPassing clouds.6 mph69%29.95 "HgN/A
9:20 AM70 °FPassing clouds.5 mph73%29.95 "HgN/A
8:50 AM68 °FPassing clouds.5 mph78%29.95 "HgN/A
8:20 AM68 °FScattered clouds.6 mph78%29.95 "HgN/A
7:50 AM68 °FPartly sunny.5 mph78%29.95 "HgN/A
7:20 AM68 °FPassing clouds.6 mph78%29.95 "HgN/A
6:50 AM68 °FPassing clouds.5 mph83%29.95 "HgN/A
6:20 AM68 °FPassing clouds.3 mph88%29.95 "HgN/A
5:50 AM68 °FPassing clouds.3 mph88%29.95 "HgN/A
5:20 AM68 °FPassing clouds.3 mph94%29.95 "HgN/A
4:50 AM68 °FPassing clouds.3 mph94%29.95 "HgN/A
4:20 AM68 °FPassing clouds.No wind94%29.95 "HgN/A
3:50 AM68 °FPassing clouds.1 mph94%29.95 "HgN/A
3:20 AM68 °FPassing clouds.2 mph88%29.95 "HgN/A
2:50 AM70 °FPassing clouds.1 mph83%29.95 "HgN/A
2:20 AM70 °FPassing clouds.2 mph83%29.98 "HgN/A
1:50 AM70 °FPassing clouds.2 mph83%29.98 "HgN/A
1:20 AM72 °FPassing clouds.2 mph83%29.98 "HgN/A
12:50 AM72 °FPassing clouds.3 mph83%29.98 "HgN/A
12:20 AM72 °FPassing clouds.2 mph83%29.98 "HgN/A
11:50 PM
Aug 30
72 °FPassing clouds.2 mph83%29.98 "HgN/A
11:20 PM70 °FPassing clouds.No wind88%29.98 "HgN/A
10:50 PM72 °FClear.1 mph78%29.98 "Hg10 mi
10:20 PM72 °FClear.No wind83%29.98 "Hg10 mi
9:50 PM73 °FClear.1 mph74%29.98 "Hg10 mi
9:20 PM73 °FClear.No wind78%29.98 "Hg10 mi
8:50 PM73 °FSunny.2 mph78%29.95 "Hg10 mi
7:50 PM77 °FSunny.5 mph61%29.95 "Hg10 mi
7:20 PM79 °FPassing clouds.3 mph61%29.95 "HgN/A
6:50 PM81 °FPassing clouds.2 mph54%29.95 "HgN/A
6:20 PM82 °FPassing clouds.3 mph55%29.95 "HgN/A
5:50 PM81 °FPassing clouds.3 mph58%29.95 "HgN/A
5:20 PM81 °FPassing clouds.5 mph58%29.95 "HgN/A
4:50 PM82 °FPassing clouds.2 mph51%29.95 "HgN/A
4:20 PM81 °FScattered clouds.5 mph58%29.95 "HgN/A
3:50 PM81 °FScattered clouds.3 mph58%29.98 "HgN/A
3:20 PM81 °FScattered clouds.3 mph62%29.98 "HgN/A
2:50 PM81 °FScattered clouds.5 mph62%29.98 "HgN/A
2:20 PM79 °FScattered clouds.3 mph65%30.01 "HgN/A
1:50 PM79 °FScattered clouds.3 mph61%30.01 "HgN/A
1:20 PM79 °FScattered clouds.3 mph58%30.01 "HgN/A
Weather by CustomWeather, © 2014

See weather overviewHow to use our weather pages